Location: Misciano
(43.5000°N, 11.9500°E)
Time: 10:19:24
(UTC+00:00)

Cosmos 1190 Rocket - Pass Details

Date: 13 August 2020
Orbit: 756 x 780 km, 74.1° (Epoch: 20 September)

Event Time Altitude Azimuth Distance (km) Brightness Sun altitude
Rises 18:51:16 0° 188° (S) 3,227 7.0 -6.3°
Reaches altitude 10° 18:53:39 10° 184° (S) 2,309 6.3 -6.7°
Maximum altitude 18:58:48 60° 106° (ESE) 888 4.1 -7.6°
Drops below altitude 10° 19:04:01 10° 27° (NNE) 2,338 6.5 -8.4°
Sets 19:06:26 0° 24° (NNE) 3,272 7.3 -8.8°
